Change the Weather History Date:

Thursday, July 18, 2013

  Actual Average Record
Temperature  
Mean Temperature 68 °F -  
Max Temperature 80 °F 82 °F - ()
Min Temperature 55 °F 52 °F - ()
Cooling Degree Days 2    
Growing Degree Days 18 (Base 50)    
Moisture  
Dew Point 51 °F    
Average Humidity 68    
Maximum Humidity 94    
Minimum Humidity 28    
Precipitation  
Precipitation 0.01 in 0.01 in - ()
Sea Level Pressure  
Sea Level Pressure 30.01 in    
Wind  
Wind Speed 11 mph ()    
Max Wind Speed 23 mph    
Max Gust Speed -    
Visibility 6.6 miles    
Events Rain    
T = Trace of Precipitation, MM = Missing Value Source: Averaged Metar Reports

Daily Weather History Graph

Daily Weather History Graph

Search for Another Location

Airport or City:

Trip Planner

Search our weather history database for the weather conditions in past years. The results will help you decide how hot, cold, wet, or windy it might be!

Date:

Astronomy

Jul. 18, 2013 Rise Set
Actual Time 5:19 AM EEST 7:57 PM EEST
Civil Twilight 4:47 AM EEST 8:29 PM EEST
Nautical Twilight 4:08 AM EEST 9:08 PM EEST
Astronomical Twilight 3:23 AM EEST 9:52 PM EEST
Moon 3:31 PM EEST (7/18) 12:53 AM EEST (7/18)
Length of Visible Light 15h 41m
Length of Day
14h 38m
Waxing Gibbous, 74% of the Moon is Illuminated
Jul 18
Waxing Gibbous
Jul 22
Full
Jul 29
Last Quarter
Aug 7
New
Aug 14
First Quarter

Hourly Weather History & Observations

Time (EEST) Temp. Dew Point Humidity Pressure Visibility Wind Dir Wind Speed Gust Speed Precip Events Conditions
12:50 AM 57.2 °F 50.0 °F 77% 30.01 in 6.2 mi North 12.7 mph - N/A   Partly Cloudy
1:50 AM 57.2 °F 50.0 °F 77% 30.01 in 6.2 mi NNE 9.2 mph - N/A   Scattered Clouds
2:50 AM 55.4 °F 51.8 °F 88% 30.01 in 6.2 mi North 9.2 mph - N/A   Scattered Clouds
3:00 AM 61 °F 54 °F 70%  in 9 mi East 3.5 mph - - Rain Light Rain Showers
3:50 AM 55.4 °F 51.8 °F 88% 30.01 in 6.2 mi ENE 2.3 mph - N/A   Scattered Clouds
4:50 AM 55.4 °F 51.8 °F 88% 30.01 in 6.2 mi North 8.1 mph - N/A   Scattered Clouds
5:50 AM 53.6 °F 51.8 °F 94% 30.01 in 6.2 mi North 8.1 mph - N/A   Scattered Clouds
6:50 AM 55.4 °F 51.8 °F 88% 30.01 in 6.2 mi ENE 4.6 mph - N/A   Scattered Clouds
7:50 AM 60.8 °F 50.0 °F 68% 30.01 in 6.2 mi North 9.2 mph - N/A   Scattered Clouds
8:50 AM 60.8 °F 51.8 °F 72% 30.01 in 6.2 mi North 15.0 mph - N/A   Mostly Cloudy
9:00 AM 70 °F 50 °F 38%  in 9 mi South 2.3 mph - -   Partly Cloudy
9:50 AM 62.6 °F 51.8 °F 68% 30.01 in 6.2 mi NNW 17.3 mph - N/A   Mostly Cloudy
10:50 AM 66.2 °F 51.8 °F 60% 30.01 in 6.2 mi NNW 15.0 mph - N/A   Mostly Cloudy
11:50 AM 69.8 °F 50.0 °F 49% 30.01 in 6.2 mi North 16.1 mph - N/A   Mostly Cloudy
12:50 PM 69.8 °F 48.2 °F 46% 30.01 in 6.2 mi North 18.4 mph - N/A   Scattered Clouds
1:50 PM 69.8 °F 48.2 °F 46% 29.98 in 6.2 mi North 15.0 mph - N/A   Scattered Clouds
2:50 PM 69.8 °F 50.0 °F 49% 29.98 in 6.2 mi NNE 19.6 mph - N/A   Scattered Clouds
3:00 PM 78 °F 51 °F 28%  in 9 mi NNE 6.9 mph - -   Scattered Clouds
3:50 PM 68.0 °F 51.8 °F 56% 30.01 in 6.2 mi North 20.7 mph - N/A   Scattered Clouds
4:50 PM 64.4 °F 51.8 °F 64% 29.98 in 6.2 mi North 23.0 mph - N/A   Scattered Clouds
5:50 PM 62.6 °F 51.8 °F 68% 30.01 in 6.2 mi North 20.7 mph - N/A   Scattered Clouds
6:50 PM 59.0 °F 50.0 °F 72% 30.01 in 6.2 mi NNE 23.0 mph - N/A   Scattered Clouds
7:50 PM 57.2 °F 50.0 °F 77% 30.01 in 6.2 mi NNE 23.0 mph - N/A   Mostly Cloudy
8:50 PM 57.2 °F 50.0 °F 77% 30.04 in 6.2 mi North 19.6 mph - N/A   Mostly Cloudy
9:00 PM 64 °F 51 °F 52%  in 9 mi NNE 4.6 mph - -   Mostly Cloudy
9:50 PM 57.2 °F 50.0 °F 77% 30.04 in 6.2 mi North 23.0 mph - N/A   Mostly Cloudy
10:50 PM 55.4 °F 48.2 °F 77% 30.06 in 6.2 mi NNE 15.0 mph - N/A   Mostly Cloudy
11:50 PM 55.4 °F 48.2 °F 77% 30.06 in 6.2 mi NNE 15.0 mph - N/A   Mostly Cloudy